Flag for Australia Weather past 2 weeks in Darwin, Northern Territory, Australia

Now
84 °F

Partly sunny.


Feels Like: 94 °F
Forecast: 78 / 91 °F
Wind: 7 mph from Northeast

Location: Darwin Airport

Current Time: Dec 23, 2014 at 9:56:27 AM

Latest Report: Dec 23, 2014 at 9:00 AM


Visibility: N/A

Pressure: 29.83 "Hg

Humidity: 79%

Dew point: 77 °F

Location of DarwinLocation

Historic Weather in Darwin — Graph

°F

Darwin temperature yesterday

Maximum temperature yesterday: 95 °F (at 4:00 PM)
Minimum temperature yesterday: 81 °F (at 7:30 AM)
Average temperature yesterday: 87 °F

Past Weeks' High & Low Weather Summary

 TemperatureHumidityPressure
High95 °F (Dec 20, 4:00 PM)100% (Dec 20, 5:30 AM)29.86 "Hg (Dec 20, 5:30 AM)
Low77 °F (Dec 11, 7:00 AM)39% (Dec 20, 5:30 PM)29.65 "Hg (Dec 15, 4:30 PM)
Average86 °F73%29.76 "Hg
* Reported Dec 8 8:30 AM — Dec 23 8:30 AM, Darwin, Weather by CustomWeather, © 2014

Note: Actual official high and low records may vary slightly from our data, if they occured in-between our weather recording intervals... More about our weather records

Advertising

Darwin weather history for previous 24 hours

 ConditionsComfort  
Time TempWeatherWind HumidityBarometerVisibility
8:30 AM
Dec 23
84 °FPartly sunny.6 mph79%29.83 "HgN/A
7:30 AM82 °FBroken clouds.7 mph84%29.80 "HgN/A
7:00 AM82 °FPartly sunny.No wind89%29.80 "HgN/A
6:30 AM81 °FPassing clouds.5 mph89%29.77 "HgN/A
6:00 AM82 °FThundershowers. Passing clouds.5 mph89%29.77 "HgN/A
5:30 AM82 °FPassing clouds.6 mph84%29.77 "HgN/A
5:00 AM82 °FThundershowers. Passing clouds.6 mph84%29.74 "HgN/A
4:30 AM82 °FThundershowers. Passing clouds.7 mph84%29.74 "HgN/A
4:00 AM82 °FPassing clouds.6 mph84%29.74 "HgN/A
3:30 AM82 °FPassing clouds.6 mph84%29.74 "HgN/A
3:00 AM84 °FPassing clouds.7 mph79%29.74 "HgN/A
2:30 AM84 °FPassing clouds.6 mph79%29.74 "HgN/A
2:00 AM84 °FPassing clouds.7 mph74%29.74 "HgN/A
1:30 AM84 °FPassing clouds.7 mph79%29.74 "HgN/A
1:00 AM86 °FPassing clouds.3 mph75%29.74 "HgN/A
12:30 AM86 °FPassing clouds.5 mph75%29.77 "HgN/A
12:00 AM84 °FPassing clouds.5 mph79%29.77 "HgN/A
11:30 PM
Dec 22
84 °FPassing clouds.6 mph79%29.77 "HgN/A
11:00 PM86 °FPassing clouds.6 mph70%29.77 "HgN/A
10:30 PM86 °FPassing clouds.6 mph70%29.77 "HgN/A
10:00 PM86 °FClear.6 mph70%29.74 "Hg10 mi
9:30 PM86 °FClear.6 mph70%29.74 "Hg10 mi
9:00 PM86 °FClear.6 mph70%29.74 "Hg10 mi
8:30 PM88 °FClear.7 mph62%29.74 "Hg10 mi
8:00 PM88 °FClear.9 mph62%29.74 "Hg10 mi
7:30 PM88 °FPartly sunny.10 mph62%29.71 "HgN/A
7:00 PM90 °FPartly sunny.9 mph55%29.71 "HgN/A
6:30 PM90 °FPartly sunny.12 mph55%29.68 "HgN/A
6:00 PM91 °FPartly sunny.13 mph52%29.68 "HgN/A
5:30 PM91 °FPartly sunny.10 mph49%29.68 "HgN/A
5:00 PM93 °FPartly sunny.12 mph47%29.68 "HgN/A
4:30 PM95 °FPartly sunny.12 mph39%29.68 "HgN/A
4:00 PM95 °FPartly sunny.9 mph44%29.71 "HgN/A
3:30 PM93 °FPassing clouds.10 mph49%29.71 "HgN/A
2:30 PM93 °FPartly sunny.10 mph49%29.71 "HgN/A
2:00 PM93 °FPartly sunny.10 mph49%29.74 "HgN/A
1:30 PM91 °FPartly sunny.10 mph52%29.74 "HgN/A
1:00 PM93 °FPartly sunny.13 mph49%29.77 "HgN/A
12:30 PM90 °FPartly sunny.10 mph55%29.77 "HgN/A
12:00 PM91 °FPartly sunny.9 mph52%29.77 "HgN/A
11:30 AM90 °FPartly sunny.9 mph59%29.80 "HgN/A
11:00 AM90 °FPartly sunny.8 mph59%29.80 "HgN/A
10:30 AM88 °FPartly sunny.7 mph62%29.80 "HgN/A
9:30 AM84 °FBroken clouds.6 mph70%29.80 "HgN/A
9:00 AM82 °FBroken clouds.3 mph79%29.80 "HgN/A
Weather by CustomWeather, © 2014

See weather overviewHow to use our weather pages